FW7661 Weather Reports


Display with metric or nautical units.
time (UTC)temp
F
wind
direction
speed
MPH
gust
MPH
rain 1hr
in
rain 24hr
in
rain mn
in
humidity
%
barometer
mb
20260507044553 54 210 2.0 6.0 0.00 0.00 0.00 84 1021.5
20260507043054 54 253 1.0 3.0 0.00 0.00 0.00 83 1021.5
20260507041556 54 228 2.0 6.0 0.00 0.00 0.00 83 1021.4
20260507040050 54 293 1.0 5.0 0.00 0.00 0.00 82 1021.2
20260507034555 54 203 3.0 7.0 0.00 0.00 0.00 82 1021.1
20260507033056 55 223 4.0 7.0 0.00 0.00 0.00 81 1021.0
20260507031603 55 236 3.0 5.0 0.00 0.00 0.00 81 1020.8
20260507030054 55 211 2.0 7.0 0.00 0.00 0.00 81 1020.7
20260507024552 55 240 3.0 9.0 0.00 0.00 0.00 80 1020.7
20260507023103 55 235 5.0 10.0 0.00 0.00 0.00 80 1020.5
20260507021554 56 224 2.0 6.0 0.00 0.00 0.00 80 1020.5
20260507020056 56 231 3.0 9.0 0.00 0.00 0.00 80 1020.6
20260507014551 56 234 4.0 8.0 0.00 0.00 0.00 80 1020.4
20260507013047 56 279 2.0 6.0 0.00 0.00 0.00 81 1020.5
20260507011552 55 225 3.0 8.0 0.00 0.00 0.00 81 1020.6
20260507010057 56 262 2.0 8.0 0.00 0.00 0.00 80 1020.7
20260507004551 56 234 5.0 10.0 0.00 0.00 0.00 80 1020.6
20260507003057 56 238 3.0 8.0 0.00 0.00 0.00 80 1020.7
20260507001555 56 282 4.0 9.0 0.00 0.00 0.00 80 1020.8
20260507000052 56 275 6.0 12.0 0.00 0.00 0.00 78 1020.8
20260506234552 56 258 4.0 7.0 0.00 0.00 0.00 78 1020.7
20260506233108 56 241 4.0 7.0 0.00 0.00 0.00 79 1020.9
20260506231550 55 227 4.0 7.0 0.00 0.00 0.00 80 1020.8
20260506230051 55 248 4.0 7.0 0.00 0.00 0.00 80 1020.7
20260506224548 55 304 3.0 7.0 0.00 0.00 0.00 80 1020.8
20260506223053 55 283 1.0 5.0 0.00 0.00 0.00 81 1020.9
20260506221552 54 278 4.0 9.0 0.00 0.00 0.00 81 1021.1
20260506220051 54 256 5.0 11.0 0.00 0.00 0.00 81 1021.1
20260506214552 54 232 4.0 9.0 0.00 0.00 0.00 81 1021.1
20260506213113 55 285 4.0 9.0 0.00 0.00 0.00 81 1021.1
20260506211552 55 286 5.0 8.0 0.00 0.00 0.00 81 1021.1
20260506210055 54 321 2.0 6.0 0.00 0.00 0.00 82 1021.1
20260506204551 54 267 3.0 7.0 0.00 0.00 0.00 82 1021.0
20260506203047 54 236 4.0 7.0 0.00 0.00 0.00 83 1020.9
20260506201553 54 0 0.0 1.0 0.00 0.00 0.00 85 1020.8
20260506200056 53 286 2.0 4.0 0.00 0.00 0.00 85 1020.8
20260506194628 53 245 1.0 3.0 0.00 0.00 0.00 86 1020.7
20260506193100 53 236 2.0 4.0 0.00 0.00 0.00 87 1020.6
20260506191551 53 309 3.0 5.0 0.00 0.00 0.00 87 1020.6
20260506190057 53 291 2.0 6.0 0.00 0.00 0.00 87 1020.6
20260506184557 54 290 3.0 8.0 0.00 0.00 0.00 87 1020.7
20260506183053 55 288 2.0 4.0 0.00 0.00 0.00 85 1020.5
20260506181552 55 198 2.0 7.0 0.00 0.00 0.00 84 1020.2
20260506174554 54 239 1.0 4.0 0.00 0.00 0.00 86 1020.4
20260506173056 54 206 1.0 5.0 0.00 0.00 0.00 87 1020.4
20260506171556 53 168 1.0 5.0 0.00 0.00 0.00 88 1020.4
20260506170103 53 245 1.0 6.0 0.00 0.00 0.00 88 1020.4
20260506164548 53 103 1.0 5.0 0.00 0.00 0.00 89 1020.3
20260506163110 53 105 2.0 7.0 0.00 0.00 0.00 90 1019.9
20260506161601 52 139 2.0 6.0 0.00 0.00 0.00 92 1019.7
20260506160051 52 131 1.0 6.0 0.00 0.00 0.00 92 1020.1
20260506154608 52 0 0.0 4.0 0.00 0.00 0.00 92 1020.3
20260506153110 52 180 0.0 5.0 0.00 0.00 0.00 92 1020.0
20260506151558 52 147 1.0 4.0 0.00 0.00 0.00 92 1019.9
20260506150047 52 118 0.0 5.0 0.00 0.00 0.00 91 1020.0
20260506144552 52 262 0.0 4.0 0.00 0.00 0.00 91 1020.0
20260506143103 52 115 2.0 8.0 0.00 0.00 0.00 91 1019.5
20260506141553 52 0 0.0 4.0 0.00 0.00 0.00 92 1019.7
20260506140054 52 136 1.0 5.0 0.00 0.00 0.00 93 1019.8
20260506134553 52 92 0.0 3.0 0.00 0.00 0.00 93 1019.8
20260506133055 52 155 0.0 5.0 0.00 0.00 0.00 93 1019.6
20260506131554 52 143 1.0 6.0 0.00 0.00 0.00 93 1019.3
20260506130054 52 135 0.0 3.0 0.00 0.00 0.00 93 1019.2
20260506124552 52 191 0.0 3.0 0.00 0.00 0.00 93 1019.1
20260506123049 52 111 1.0 3.0 0.00 0.00 0.00 93 1018.9
20260506121551 52 0 0.0 1.0 0.00 0.00 0.00 92 1019.0
20260506120057 52 191 0.0 3.0 0.00 0.00 0.00 92 1018.8
20260506114558 52 139 0.0 1.0 0.00 0.00 0.00 91 1018.6
20260506113055 53 0 0.0 2.0 0.00 0.00 0.00 90 1018.8
20260506111550 53 227 0.0 3.0 0.00 0.00 0.00 89 1018.8
20260506104550 53 0 0.0 3.0 0.00 0.00 0.00 88 1018.5
20260506103053 53 245 1.0 2.0 0.00 0.00 0.00 88 1018.3
20260506101551 53 207 1.0 2.0 0.00 0.00 0.00 88 1018.4
20260506100051 53 245 0.0 2.0 0.00 0.00 0.00 88 1018.2
20260506094606 53 266 3.0 5.0 0.00 0.00 0.00 87 1018.0
20260506093056 54 219 2.0 4.0 0.00 0.00 0.00 87 1017.9
20260506091552 54 161 1.0 4.0 0.00 0.00 0.00 87 1017.9
20260506090054 54 236 1.0 3.0 0.00 0.00 0.00 87 1017.8
20260506084554 54 222 0.0 3.0 0.00 0.00 0.00 87 1017.8
20260506083102 54 0 0.0 3.0 0.00 0.00 0.00 86 1017.6
20260506081555 54 0 0.0 5.0 0.00 0.00 0.00 86 1017.5
20260506073103 54 244 3.0 4.0 0.00 0.00 0.00 86 1017.5
20260506071556 55 245 3.0 5.0 0.00 0.00 0.00 85 1017.4
20260506061548 56 255 2.0 5.0 0.00 0.00 0.00 85 1016.6